Weather History for Jaipur, India

Change the Weather History Date:

Sunday, January 26, 2014

  Actual Average Record
Temperature  
Mean Temperature 57 °F -  
Max Temperature 73 °F - - ()
Min Temperature 41 °F - - ()
Degree Days  
Heating Degree Days 8    
Growing Degree Days 7 (Base 50)    
Moisture  
Dew Point 50 °F    
Average Humidity 74    
Maximum Humidity 100    
Minimum Humidity 26    
Precipitation  
Precipitation 0.00 in - - ()
Sea Level Pressure  
Sea Level Pressure 30.12 in    
Wind  
Wind Speed 2 mph ()    
Max Wind Speed 8 mph    
Max Gust Speed -    
Visibility 1.8 miles    
Events Fog    
T = Trace of Precipitation, MM = Missing Value Source: Averaged Metar Reports

Daily Weather History Graph

Daily Weather History Graph

Search for Another Location

Airport:

Trip Planner

Search our weather history database for the weather conditions in past years. The results will help you decide how hot, cold, wet, or windy it might be!

Date:

Astronomy

Jan. 26, 2014 Rise Set
Actual Time 7:14 AM IST 6:03 PM IST
Civil Twilight 6:50 AM IST 6:28 PM IST
Nautical Twilight 6:22 AM IST 6:56 PM IST
Astronomical Twilight 5:54 AM IST 7:24 PM IST
Moon 2:22 AM IST (1/26) 1:31 PM IST (1/26)
Length of Visible Light 11h 38m
Length of Day
10h 49m
Waning Crescent, 28% of the Moon is Illuminated
Jan 26
Waning Crescent
Jan 31
New
Feb 7
First Quarter
Feb 15
Full
Feb 22
Last Quarter

Hourly Weather History & Observations

Time (IST) Temp. Dew Point Humidity Pressure Visibility Wind Dir Wind Speed Gust Speed Precip Events Conditions
12:00 AM 55.4 °F 55.4 °F 100% 30.12 in 0.7 mi Variable 2.3 mph - N/A   Scattered Clouds
1:00 AM 55.4 °F 55.4 °F 100% 30.12 in 0.7 mi NNW 4.6 mph - N/A   Scattered Clouds
2:00 AM 53.6 °F 53.6 °F 100% 30.12 in 0.7 mi Variable 1.2 mph - N/A   Scattered Clouds
2:30 AM 53 °F 53 °F 100% 30.11 in 1 mi Calm Calm - -   Mist
3:00 AM 51.8 °F 51.8 °F 100% 30.09 in 0.6 mi Calm Calm - N/A Fog Shallow Fog
4:00 AM 50.0 °F 50.0 °F 100% 30.09 in - Calm Calm - N/A Fog Shallow Fog
5:00 AM 46.4 °F 46.4 °F 100% 30.09 in - Variable 2.3 mph - N/A Fog Shallow Fog
5:30 AM 45 °F 45 °F 100% 30.11 in 1 mi Calm Calm - - Fog Patches of Fog
8:30 AM 47 °F 47 °F 99% 30.17 in 1 mi Calm Calm - - Fog Partial Fog
10:00 AM 62.6 °F 48.2 °F 59% 30.18 in 1.6 mi Variable 1.2 mph - N/A   Haze
11:00 AM 64.4 °F 46.4 °F 52% 30.18 in 2.5 mi ESE 4.6 mph - N/A   Haze
11:30 AM 66 °F 45 °F 36% 30.14 in 2 mi SE 4.6 mph - -   Haze
12:00 PM 66.2 °F 46.4 °F 49% 30.15 in 2.5 mi South 4.6 mph - N/A   Haze
1:00 PM 68.0 °F 46.4 °F 46% 30.12 in 2.5 mi Variable 5.8 mph - N/A   Haze
2:00 PM 69.8 °F 44.6 °F 40% 30.09 in 2.5 mi Variable 4.6 mph - N/A   Haze
2:30 PM 72 °F 44 °F 26% 30.06 in 2 mi SW 4.6 mph - -   Haze
3:00 PM 71.6 °F 44.6 °F 38% 30.06 in 2.5 mi SSW 3.5 mph - N/A   Haze
4:00 PM 71.6 °F 44.6 °F 38% 30.06 in 2.5 mi South 4.6 mph - N/A   Haze
5:00 PM 68.0 °F 50.0 °F 52% 30.06 in 2.5 mi South 8.1 mph - N/A   Haze
5:30 PM 67 °F 52 °F 49% 30.05 in 2 mi SW 6.9 mph - -   Haze
6:00 PM 64.4 °F 51.8 °F 64% 30.09 in 2.5 mi SSW 5.8 mph - N/A   Haze
8:00 PM 59.0 °F 53.6 °F 82% 30.12 in 2.5 mi Calm Calm - N/A   Haze
8:30 PM 58 °F 54 °F 82% 30.12 in 1 mi 1.2 mph - -   Mist
8:30 PM 59.0 °F 53.6 °F 82% 30.15 in 2.2 mi Variable 1.2 mph - N/A   Mist
10:00 PM 55.4 °F 53.6 °F 94% 30.15 in 1.9 mi Calm Calm - N/A   Mist
11:00 PM 57.2 °F 55.4 °F 94% 30.15 in 1.9 mi Variable 3.5 mph - N/A   Mist
11:30 PM 55 °F 53 °F 92% 30.14 in 1 mi Calm Calm - -   Mist
11:30 PM 55.4 °F 55.4 °F 100% 30.15 in 1.9 mi Variable 1.2 mph - N/A   Mist